This is the latest recevied weather packets stored in our database for station/object KC5DP. If no packets are shown the sender has not sent any weather packets the latest 10 day(s).
| Time | Temp. | Humidity | Pressure | Rain* | Wind** | Luminosity | Snow |
|---|---|---|---|---|---|---|---|
| 1778152235 | 20.56° C | 99% | 1011.9 hPa | 6.6 mm | - | 0 W/m² | - |
| 1778151931 | 20.56° C | 99% | 1011.8 hPa | 3.05 mm | - | 0 W/m² | - |
| 1778151628 | 20.56° C | 99% | 1011.8 hPa | 0 mm | - | 0 W/m² | - |
| 1778151325 | 20.56° C | 99% | 1011.7 hPa | 1.27 mm | - | 0 W/m² | - |
| 1778151020 | 20.56° C | 99% | 1011.4 hPa | 1.27 mm | - | 0 W/m² | - |
| 1778150718 | 21.11° C | 99% | 1011.5 hPa | 0 mm | - | 0 W/m² | - |
| 1778150414 | 21.11° C | 99% | 1011.2 hPa | 0 mm | - | 0 W/m² | - |
| 1778150111 | 21.11° C | 99% | 1011 hPa | 0 mm | - | 0 W/m² | - |
| 1778149807 | 21.11° C | 99% | 1010.9 hPa | 0 mm | - | 0 W/m² | - |
| 1778149504 | 21.11° C | 99% | 1010.8 hPa | 0 mm | - | 0 W/m² | - |
| 1778149200 | 21.11° C | 98% | 1010.8 hPa | 0 mm | - | 0 W/m² | - |
| 1778148895 | 21.11° C | 98% | 1010.9 hPa | 0 mm | - | 0 W/m² | - |
| 1778148592 | 21.11° C | 98% | 1010.9 hPa | 0 mm | - | 0 W/m² | - |
| 1778148290 | 21.67° C | 98% | 1010.9 hPa | 0 mm | - | 0 W/m² | - |
| 1778147988 | 21.11° C | 98% | 1010.8 hPa | 0 mm | - | 0 W/m² | - |
| 1778147685 | 21.67° C | 98% | 1010.8 hPa | 0 mm | - | 0 W/m² | - |
| 1778147382 | 21.67° C | 98% | 1010.4 hPa | 0 mm | - | 0 W/m² | - |
| 1778147078 | 21.67° C | 98% | 1010.5 hPa | 0 mm | - | 0 W/m² | - |
| 1778146775 | 21.67° C | 98% | 1010.5 hPa | 0 mm | - | 0 W/m² | - |
| 1778146473 | 21.67° C | 98% | 1010.4 hPa | 0 mm | - | 0 W/m² | - |
| 1778146171 | 21.67° C | 98% | 1010.4 hPa | 4.83 mm | - | 0 W/m² | - |
| 1778145867 | 21.67° C | 98% | 1010.6 hPa | 4.83 mm | - | 0 W/m² | - |
| 1778145564 | 21.67° C | 98% | 1010.5 hPa | 3.05 mm | - | 0 W/m² | - |
| 1778145260 | 22.22° C | 98% | 1010.4 hPa | 4.32 mm | - | 0 W/m² | - |
| 1778144956 | 22.78° C | 98% | 1010.4 hPa | 3.05 mm | - | 0 W/m² | - |
* Rain latest hour (hover to see other rain measurements)
** Current wind speed in m/s (hover to see current wind gust speed)